,,,PA_Meas_PMT16A,,PR_Meas_QMR101_102,,RH_Meas_QMH101,,SR_Meas_QMS101,,TA_Meas_QMH101,,GenWind,,GenWind,
date,time,status,PA,status,PR,status,RH,status,SR,status,TA,status,DirAvg,status,SpdAvg,
2012-03-11, 00:00:04,VALID,998.421,VALID,0,VALID,94.1419,VALID,0,VALID,23.8573,VALID,174,VALID,1.36914,
2012-03-11, 00:01:04,VALID,998.448,VALID,0,VALID,94.1495,VALID,0,VALID,23.8573,VALID,175,VALID,1.4668,
2012-03-11, 00:02:04,VALID,998.414,VALID,0,VALID,94.1648,VALID,0,VALID,23.8378,VALID,171,VALID,1.6293,
2012-03-11, 00:03:04,VALID,998.425,VALID,0,VALID,94.1648,VALID,0,VALID,23.8378,VALID,166,VALID,1.66094,
2012-03-11, 00:04:04,VALID,998.398,VALID,0,VALID,94.1571,VALID,0,VALID,23.8378,VALID,162,VALID,1.70195,
2012-03-11, 00:05:04,VALID,998.402,VALID,0,VALID,94.1571,VALID,0,VALID,23.8378,VALID,164,VALID,1.79766,
2012-03-11, 00:06:04,VALID,998.371,VALID,0,VALID,94.1648,VALID,0,VALID,23.8378,VALID,173,VALID,1.67617,
2012-03-11, 00:07:04,VALID,998.361,VALID,0,VALID,94.1648,VALID,0,VALID,23.8183,VALID,170,VALID,1.425,
2012-03-11, 00:08:04,VALID,998.348,VALID,0,VALID,94.1953,VALID,0,VALID,23.8183,VALID,177,VALID,1.33555,
2012-03-11, 00:09:04,VALID,998.326,VALID,0,VALID,94.1877,VALID,0,VALID,23.8183,VALID,169,VALID,1.01484,
2012-03-11, 00:10:04,VALID,998.303,VALID,0,VALID,94.1724,VALID,0,VALID,23.797,VALID,175,VALID,1.02813,
2012-03-11, 00:11:04,VALID,998.278,VALID,0,VALID,94.1953,VALID,0,VALID,23.7988,VALID,175,VALID,0.63125,
2012-03-11, 00:12:04,VALID,998.274,VALID,0,VALID,94.2258,VALID,0,VALID,23.8183,VALID,200,VALID,0.877344,
2012-03-11, 00:13:04,VALID,998.254,VALID,0,VALID,94.2182,VALID,0,VALID,23.7988,VALID,200,VALID,0.926953,
2012-03-11, 00:14:04,VALID,998.271,VALID,0,VALID,94.2487,VALID,0,VALID,23.8183,VALID,191,VALID,0.959375,
2012-03-11, 00:15:04,VALID,998.295,VALID,0,VALID,94.2411,VALID,0,VALID,23.8183,VALID,191,VALID,0.791406,
2012-03-11, 00:16:04,VALID,998.317,VALID,0,VALID,94.2411,VALID,0,VALID,23.8183,VALID,168,VALID,0.808984,
2012-03-11, 00:17:04,VALID,998.345,VALID,0,VALID,94.264,VALID,0,VALID,23.8183,VALID,162,VALID,0.826172,
2012-03-11, 00:18:04,VALID,998.339,VALID,0,VALID,94.2945,VALID,0,VALID,23.8183,VALID,156,VALID,1.31719,
2012-03-11, 00:19:04,VALID,998.326,VALID,0,VALID,94.2716,VALID,0,VALID,23.8183,VALID,156,VALID,1.41445,
2012-03-11, 00:20:04,VALID,998.337,VALID,0,VALID,94.2411,VALID,0,VALID,23.8183,VALID,163,VALID,1.60234,
2012-03-11, 00:21:04,VALID,998.333,VALID,0,VALID,94.264,VALID,0,VALID,23.7988,VALID,169,VALID,1.33945,
2012-03-11, 00:22:04,VALID,998.311,VALID,0,VALID,94.2792,VALID,0,VALID,23.8183,VALID,181,VALID,1.50117,
2012-03-11, 00:23:04,VALID,998.321,VALID,0.5,VALID,94.264,VALID,0,VALID,23.7988,VALID,178,VALID,1.38125,
2012-03-11, 00:24:04,VALID,998.3,VALID,0,VALID,94.2487,VALID,0,VALID,23.7988,VALID,172,VALID,1.13437,
2012-03-11, 00:25:04,VALID,998.336,VALID,0,VALID,94.2792,VALID,0,VALID,23.7988,VALID,169,VALID,1.20117,
2012-03-11, 00:26:04,VALID,998.338,VALID,0,VALID,94.2411,VALID,0,VALID,23.7793,VALID,162,VALID,1.52031,
2012-03-11, 00:27:04,VALID,998.362,VALID,0,VALID,94.2258,VALID,0,VALID,23.7775,VALID,164,VALID,1.37266,
2012-03-11, 00:28:04,VALID,998.363,VALID,0,VALID,94.2563,VALID,0,VALID,23.7988,VALID,173,VALID,1.42969,
2012-03-11, 00:29:04,VALID,998.356,VALID,0,VALID,94.2411,VALID,0,VALID,23.7793,VALID,169,VALID,1.44844,
2012-03-11, 00:30:04,VALID,998.331,VALID,0,VALID,94.2563,VALID,0,VALID,23.7793,VALID,163,VALID,1.26641,
2012-03-11, 00:31:04,VALID,998.326,VALID,0.5,VALID,94.2563,VALID,0,VALID,23.7793,VALID,163,VALID,1.17813,
2012-03-11, 00:32:04,VALID,998.353,VALID,0,VALID,94.2945,VALID,0,VALID,23.7988,VALID,174,VALID,1.31289,
2012-03-11, 00:33:04,VALID,998.309,VALID,0,VALID,94.3097,VALID,0,VALID,23.7775,VALID,181,VALID,1.37773,
2012-03-11, 00:34:04,VALID,998.302,VALID,0,VALID,94.325,VALID,0,VALID,23.7793,VALID,181,VALID,1.21211,
2012-03-11, 00:35:04,VALID,998.282,VALID,0,VALID,94.3403,VALID,0,VALID,23.7793,VALID,177,VALID,1.58867,
2012-03-11, 00:36:04,VALID,998.319,VALID,0,VALID,94.3326,VALID,0,VALID,23.7793,VALID,176,VALID,1.66094,
2012-03-11, 00:37:04,VALID,998.362,VALID,0,VALID,94.3097,VALID,0,VALID,23.7597,VALID,176,VALID,1.46094,
2012-03-11, 00:38:04,VALID,998.329,VALID,0.5,VALID,94.3326,VALID,0,VALID,23.7793,VALID,164,VALID,1.3082,
2012-03-11, 00:39:04,VALID,998.312,VALID,0,VALID,94.3097,VALID,0,VALID,23.7597,VALID,176,VALID,1.27305,
2012-03-11, 00:40:04,VALID,998.294,VALID,0,VALID,94.3403,VALID,0,VALID,23.7597,VALID,170,VALID,1.10664,
2012-03-11, 00:41:04,VALID,998.272,VALID,0,VALID,94.3403,VALID,0,VALID,23.7597,VALID,168,VALID,1.24063,
2012-03-11, 00:42:04,VALID,998.236,VALID,0,VALID,94.3479,VALID,0,VALID,23.7402,VALID,159,VALID,0.872266,
2012-03-11, 00:43:04,VALID,998.213,VALID,0,VALID,94.3403,VALID,0,VALID,23.7402,VALID,169,VALID,0.913281,
2012-03-11, 00:44:04,VALID,998.181,VALID,0.5,VALID,94.3403,VALID,0,VALID,23.7402,VALID,191,VALID,1.16133,
2012-03-11, 00:45:04,VALID,998.151,VALID,0,VALID,94.3555,VALID,0,VALID,23.7402,VALID,182,VALID,1.21172,
2012-03-11, 00:46:04,VALID,998.125,VALID,0,VALID,94.3708,VALID,0,VALID,23.7207,VALID,183,VALID,1.06836,
2012-03-11, 00:47:04,VALID,998.165,VALID,0,VALID,94.3631,VALID,0,VALID,23.7207,VALID,176,VALID,1.09023,
2012-03-11, 00:48:04,VALID,998.154,VALID,0,VALID,94.4013,VALID,0,VALID,23.7207,VALID,174,VALID,1.20234,
2012-03-11, 00:49:04,VALID,998.192,VALID,0,VALID,94.4013,VALID,0,VALID,23.7402,VALID,170,VALID,1.22227,
2012-03-11, 00:50:04,VALID,998.185,VALID,0,VALID,94.4165,VALID,0,VALID,23.6994,VALID,168,VALID,1.44687,
2012-03-11, 00:51:04,VALID,998.17,VALID,0,VALID,94.4165,VALID,0,VALID,23.7207,VALID,167,VALID,1.05117,
2012-03-11, 00:52:04,VALID,998.168,VALID,0,VALID,94.4242,VALID,0,VALID,23.7207,VALID,165,VALID,0.89375,
2012-03-11, 00:53:04,VALID,998.179,VALID,0,VALID,94.4394,VALID,0,VALID,23.7207,VALID,160,VALID,0.971875,
2012-03-11, 00:54:04,VALID,998.147,VALID,0,VALID,94.4623,VALID,0,VALID,23.7207,VALID,166,VALID,0.882422,
2012-03-11, 00:55:04,VALID,998.129,VALID,0.5,VALID,94.4471,VALID,0,VALID,23.7207,VALID,156,VALID,1.11953,
2012-03-11, 00:56:04,VALID,998.105,VALID,0,VALID,94.4471,VALID,0,VALID,23.7207,VALID,165,VALID,1.49141,
2012-03-11, 00:57:04,VALID,998.085,VALID,0,VALID,94.4242,VALID,0,VALID,23.7012,VALID,159,VALID,1.23359,
2012-03-11, 00:58:04,VALID,998.034,VALID,0,VALID,94.4089,VALID,0,VALID,23.7012,VALID,163,VALID,1.17852,
2012-03-11, 00:59:04,VALID,998.029,VALID,0,VALID,94.4089,VALID,0,VALID,23.7207,VALID,169,VALID,0.833984,
2012-03-11, 01:00:04,VALID,998.008,VALID,0,VALID,94.4013,VALID,0,VALID,23.7012,VALID,167,VALID,0.441016,
2012-03-11, 01:01:04,VALID,998.033,VALID,0,VALID,94.4013,VALID,0,VALID,23.7012,VALID,167,VALID,0.368359,
2012-03-11, 01:02:04,VALID,998.011,VALID,0,VALID,94.4013,VALID,0,VALID,23.7012,VALID,169,VALID,0.608984,
2012-03-11, 01:03:04,VALID,998.01,VALID,0,VALID,94.3937,VALID,0,VALID,23.6799,VALID,176,VALID,0.658984,
2012-03-11, 01:04:04,VALID,998.031,VALID,0,VALID,94.3784,VALID,0,VALID,23.7012,VALID,176,VALID,0.341406,
2012-03-11, 01:05:04,VALID,997.994,VALID,0,VALID,94.3555,VALID,0,VALID,23.6817,VALID,176,VALID,0.293359,
2012-03-11, 01:06:04,VALID,998.003,VALID,0,VALID,94.3174,VALID,0,VALID,23.6622,VALID,176,VALID,0.194922,
2012-03-11, 01:07:04,VALID,997.969,VALID,0.5,VALID,94.3479,VALID,0,VALID,23.6622,VALID,176,VALID,0.392188,
2012-03-11, 01:08:04,VALID,997.973,VALID,0,VALID,94.3403,VALID,0,VALID,23.6622,VALID,176,VALID,0.561719,
2012-03-11, 01:09:04,VALID,997.947,VALID,0,VALID,94.3479,VALID,0,VALID,23.6622,VALID,176,VALID,0.441797,
2012-03-11, 01:10:04,VALID,997.932,VALID,0,VALID,94.3555,VALID,0,VALID,23.6622,VALID,162,VALID,0.791016,
2012-03-11, 01:11:04,VALID,997.897,VALID,0,VALID,94.3479,VALID,0,VALID,23.6622,VALID,162,VALID,0.487109,
2012-03-11, 01:12:04,VALID,997.898,VALID,0,VALID,94.325,VALID,0,VALID,23.6214,VALID,162,VALID,0.367188,
2012-03-11, 01:13:04,VALID,997.863,VALID,0,VALID,94.325,VALID,0,VALID,23.6427,VALID,162,VALID,0.349609,
2012-03-11, 01:14:04,VALID,997.824,VALID,0,VALID,94.325,VALID,0,VALID,23.6232,VALID,162,VALID,0.213672,
2012-03-11, 01:15:04,VALID,997.831,VALID,0,VALID,94.3174,VALID,0,VALID,23.6214,VALID,162,VALID,0.149609,
2012-03-11, 01:16:04,VALID,997.837,VALID,0,VALID,94.3174,VALID,0,VALID,23.6232,VALID,162,VALID,0.265625,
2012-03-11, 01:17:04,VALID,997.828,VALID,0,VALID,94.3555,VALID,0,VALID,23.6232,VALID,162,VALID,0.330859,
2012-03-11, 01:18:04,VALID,997.843,VALID,0,VALID,94.3631,VALID,0,VALID,23.6232,VALID,162,VALID,0.407031,
2012-03-11, 01:19:04,VALID,997.816,VALID,0,VALID,94.3937,VALID,0,VALID,23.6427,VALID,162,VALID,0.532422,
2012-03-11, 01:20:04,VALID,997.806,VALID,0,VALID,94.4318,VALID,0,VALID,23.6427,VALID,162,VALID,0.618359,
2012-03-11, 01:21:04,VALID,997.8,VALID,0,VALID,94.4318,VALID,0,VALID,23.6427,VALID,162,VALID,0.556641,
2012-03-11, 01:22:04,VALID,997.812,VALID,0,VALID,94.47,VALID,0,VALID,23.6622,VALID,162,VALID,0.444531,
2012-03-11, 01:23:04,VALID,997.803,VALID,0,VALID,94.4852,VALID,0,VALID,23.6409,VALID,160,VALID,0.528125,
2012-03-11, 01:24:04,VALID,997.795,VALID,0.5,VALID,94.4852,VALID,0,VALID,23.6622,VALID,132,VALID,0.711328,
2012-03-11, 01:25:04,VALID,997.814,VALID,0,VALID,94.5234,VALID,0,VALID,23.6604,VALID,116,VALID,0.661328,
2012-03-11, 01:26:04,VALID,997.817,VALID,0,VALID,94.5615,VALID,0,VALID,23.7012,VALID,81,VALID,0.792578,
2012-03-11, 01:27:04,VALID,997.784,VALID,0,VALID,94.5691,VALID,0,VALID,23.7012,VALID,81,VALID,0.922266,
2012-03-11, 01:28:04,VALID,997.811,VALID,0,VALID,94.5691,VALID,0,VALID,23.7012,VALID,81,VALID,0.996484,
2012-03-11, 01:29:04,VALID,997.818,VALID,0,VALID,94.5539,VALID,0,VALID,23.7012,VALID,69,VALID,0.957031,
2012-03-11, 01:30:04,VALID,997.796,VALID,0,VALID,94.5462,VALID,0,VALID,23.7012,VALID,67,VALID,1.21602,
2012-03-11, 01:31:04,VALID,997.772,VALID,0,VALID,94.5234,VALID,0,VALID,23.6817,VALID,65,VALID,0.936719,
2012-03-11, 01:32:04,VALID,997.764,VALID,0,VALID,94.531,VALID,0,VALID,23.7012,VALID,65,VALID,0.687891,
2012-03-11, 01:33:04,VALID,997.737,VALID,0,VALID,94.5386,VALID,0,VALID,23.7012,VALID,65,VALID,0.290625,
2012-03-11, 01:34:04,VALID,997.678,VALID,0,VALID,94.5539,VALID,0,VALID,23.6799,VALID,65,VALID,0.259375,
2012-03-11, 01:35:04,VALID,997.659,VALID,0,VALID,94.531,VALID,0,VALID,23.7012,VALID,65,VALID,0.0136719,
2012-03-11, 01:36:04,VALID,997.651,VALID,0,VALID,94.531,VALID,0,VALID,23.7012,VALID,65,VALID,0.00117188,
2012-03-11, 01:37:04,VALID,997.668,VALID,0,VALID,94.5157,VALID,0,VALID,23.6817,VALID,65,VALID,0.208203,
2012-03-11, 01:38:04,VALID,997.636,VALID,0,VALID,94.5005,VALID,0,VALID,23.6817,VALID,65,VALID,0.462109,
2012-03-11, 01:39:04,VALID,997.679,VALID,0,VALID,94.5005,VALID,0,VALID,23.6817,VALID,65,VALID,0.570703,
2012-03-11, 01:40:04,VALID,997.679,VALID,0,VALID,94.5081,VALID,0,VALID,23.6817,VALID,65,VALID,0.780469,
2012-03-11, 01:41:04,VALID,997.721,VALID,0,VALID,94.5386,VALID,0,VALID,23.6817,VALID,65,VALID,0.746094,
2012-03-11, 01:42:04,VALID,997.726,VALID,0,VALID,94.5615,VALID,0,VALID,23.6817,VALID,67,VALID,1.0582,
2012-03-11, 01:43:04,VALID,997.7,VALID,0,VALID,94.5844,VALID,0,VALID,23.7207,VALID,77,VALID,0.915234,
2012-03-11, 01:44:04,VALID,997.714,VALID,0,VALID,94.592,VALID,0,VALID,23.7207,VALID,77,VALID,0.992188,
2012-03-11, 01:45:04,VALID,997.672,VALID,0,VALID,94.6302,VALID,0,VALID,23.7402,VALID,84,VALID,0.80625,
2012-03-11, 01:46:04,VALID,997.675,VALID,0,VALID,94.6226,VALID,0,VALID,23.7384,VALID,80,VALID,1.05156,
2012-03-11, 01:47:04,VALID,997.674,VALID,0,VALID,94.6378,VALID,0,VALID,23.7597,VALID,80,VALID,0.404687,
2012-03-11, 01:48:04,VALID,997.685,VALID,0,VALID,94.6683,VALID,0,VALID,23.7597,VALID,80,VALID,0.769922,
2012-03-11, 01:49:04,VALID,997.659,VALID,0,VALID,94.6454,VALID,0,VALID,23.7597,VALID,68,VALID,0.855078,
2012-03-11, 01:50:04,VALID,997.673,VALID,0,VALID,94.6683,VALID,0,VALID,23.7597,VALID,74,VALID,0.754687,
2012-03-11, 01:51:04,VALID,997.659,VALID,0,VALID,94.6226,VALID,0,VALID,23.7597,VALID,72,VALID,1.03437,
2012-03-11, 01:52:04,VALID,997.684,VALID,0,VALID,94.6226,VALID,0,VALID,23.7597,VALID,77,VALID,0.952734,
2012-03-11, 01:53:04,VALID,997.686,VALID,0,VALID,94.6073,VALID,0,VALID,23.7597,VALID,93,VALID,1.01289,
2012-03-11, 01:54:04,VALID,997.694,VALID,0,VALID,94.6073,VALID,0,VALID,23.7597,VALID,95,VALID,1.08789,
2012-03-11, 01:55:04,VALID,997.682,VALID,0,VALID,94.5844,VALID,0,VALID,23.7597,VALID,95,VALID,1.03594,
2012-03-11, 01:56:04,VALID,997.682,VALID,0.5,VALID,94.5997,VALID,0,VALID,23.7597,VALID,95,VALID,1.075,
2012-03-11, 01:57:04,VALID,997.711,VALID,0,VALID,94.5997,VALID,0,VALID,23.7597,VALID,89,VALID,1.23867,
2012-03-11, 01:58:04,VALID,997.716,VALID,0,VALID,94.592,VALID,0,VALID,23.7793,VALID,89,VALID,1.0375,
2012-03-11, 01:59:04,VALID,997.747,VALID,0,VALID,94.6149,VALID,0,VALID,23.7793,VALID,95,VALID,1.40781,
2012-03-11, 02:00:04,VALID,997.78,VALID,0,VALID,94.6226,VALID,0,VALID,23.7793,VALID,88,VALID,1.39883,
2012-03-11, 02:01:04,VALID,997.749,VALID,0,VALID,94.6073,VALID,0,VALID,23.7793,VALID,89,VALID,1.04453,
2012-03-11, 02:02:04,VALID,997.765,VALID,0,VALID,94.6378,VALID,0,VALID,23.7597,VALID,95,VALID,1.13867,
2012-03-11, 02:03:04,VALID,997.732,VALID,0,VALID,94.6531,VALID,0,VALID,23.7793,VALID,89,VALID,0.823828,
2012-03-11, 02:04:04,VALID,997.746,VALID,0,VALID,94.6378,VALID,0,VALID,23.7793,VALID,89,VALID,0.853906,
2012-03-11, 02:05:04,VALID,997.74,VALID,0.5,VALID,94.6454,VALID,0,VALID,23.7793,VALID,95,VALID,1.04727,
2012-03-11, 02:06:04,VALID,997.765,VALID,0,VALID,94.6531,VALID,0,VALID,23.7597,VALID,91,VALID,1.1332,
2012-03-11, 02:07:04,VALID,997.794,VALID,0,VALID,94.6607,VALID,0,VALID,23.7793,VALID,89,VALID,1.29531,
2012-03-11, 02:08:04,VALID,997.835,VALID,0,VALID,94.6912,VALID,0,VALID,23.7793,VALID,96,VALID,1.34336,
2012-03-11, 02:09:04,VALID,997.846,VALID,0,VALID,94.6912,VALID,0,VALID,23.7793,VALID,97,VALID,1.41055,
2012-03-11, 02:10:04,VALID,997.854,VALID,0,VALID,94.6836,VALID,0,VALID,23.7793,VALID,100,VALID,1.75703,
2012-03-11, 02:11:04,VALID,997.85,VALID,0,VALID,94.676,VALID,0,VALID,23.7793,VALID,104,VALID,1.60781,
2012-03-11, 02:12:04,VALID,997.871,VALID,0,VALID,94.6836,VALID,0,VALID,23.7793,VALID,108,VALID,1.275,
2012-03-11, 02:13:04,VALID,997.872,VALID,0,VALID,94.6836,VALID,0,VALID,23.7988,VALID,114,VALID,1.11406,
2012-03-11, 02:14:04,VALID,997.875,VALID,0,VALID,94.6988,VALID,0,VALID,23.8201,VALID,121,VALID,1.03437,
2012-03-11, 02:15:04,VALID,997.834,VALID,0.5,VALID,94.7141,VALID,0,VALID,23.7988,VALID,115,VALID,1.35391,
2012-03-11, 02:16:04,VALID,997.853,VALID,0,VALID,94.7217,VALID,0,VALID,23.7793,VALID,132,VALID,0.637109,
2012-03-11, 02:17:04,VALID,997.852,VALID,0,VALID,94.6988,VALID,0,VALID,23.7793,VALID,131,VALID,0.627344,
2012-03-11, 02:18:04,VALID,997.882,VALID,0,VALID,94.7141,VALID,0,VALID,23.7579,VALID,117,VALID,0.742578,
2012-03-11, 02:19:04,VALID,997.89,VALID,0,VALID,94.6836,VALID,0,VALID,23.7793,VALID,97,VALID,0.919141,
2012-03-11, 02:20:04,VALID,997.904,VALID,0,VALID,94.676,VALID,0,VALID,23.7597,VALID,95,VALID,1.19453,
2012-03-11, 02:21:04,VALID,997.89,VALID,0,VALID,94.676,VALID,0,VALID,23.7597,VALID,114,VALID,1.01133,
2012-03-11, 02:22:04,VALID,997.894,VALID,0,VALID,94.676,VALID,0,VALID,23.7597,VALID,90,VALID,0.931641,
2012-03-11, 02:23:04,VALID,997.874,VALID,0,VALID,94.6607,VALID,0,VALID,23.7793,VALID,103,VALID,0.525391,
2012-03-11, 02:24:04,VALID,997.834,VALID,0,VALID,94.6683,VALID,0,VALID,23.7597,VALID,103,VALID,0.113281,
2012-03-11, 02:25:04,VALID,997.833,VALID,0,VALID,94.676,VALID,0,VALID,23.7597,VALID,103,VALID,0.384375,
2012-03-11, 02:26:04,VALID,997.787,VALID,0,VALID,94.6607,VALID,0,VALID,23.7597,VALID,103,VALID,0.302344,
2012-03-11, 02:27:04,VALID,997.806,VALID,0.5,VALID,94.6454,VALID,0,VALID,23.7597,VALID,103,VALID,0.0101562,
2012-03-11, 02:28:04,VALID,997.818,VALID,0,VALID,94.6683,VALID,0,VALID,23.7597,VALID,103,VALID,0,
2012-03-11, 02:29:04,VALID,997.8,VALID,0,VALID,94.676,VALID,0,VALID,23.7384,VALID,103,VALID,0,
2012-03-11, 02:30:04,VALID,997.78,VALID,0,VALID,94.6683,VALID,0,VALID,23.7402,VALID,103,VALID,0,
2012-03-11, 02:31:04,VALID,997.766,VALID,0,VALID,94.676,VALID,0,VALID,23.7402,VALID,103,VALID,0,
2012-03-11, 02:32:04,VALID,997.746,VALID,0,VALID,94.6607,VALID,0,VALID,23.7402,VALID,3,VALID,0.849219,
2012-03-11, 02:33:04,VALID,997.704,VALID,0,VALID,94.676,VALID,0,VALID,23.7402,VALID,353,VALID,0.719922,
2012-03-11, 02:34:04,VALID,997.704,VALID,0,VALID,94.6912,VALID,0,VALID,23.7189,VALID,339,VALID,0.738281,
2012-03-11, 02:35:04,VALID,997.7,VALID,0,VALID,94.6988,VALID,0,VALID,23.7384,VALID,323,VALID,0.566406,
2012-03-11, 02:36:04,VALID,997.697,VALID,0,VALID,94.6988,VALID,0,VALID,23.7384,VALID,323,VALID,0.434766,
2012-03-11, 02:37:04,VALID,997.704,VALID,0,VALID,94.737,VALID,0,VALID,23.7384,VALID,323,VALID,0.417578,
2012-03-11, 02:38:04,VALID,997.746,VALID,0,VALID,94.7294,VALID,0,VALID,23.7189,VALID,323,VALID,0.415625,
2012-03-11, 02:39:04,VALID,997.711,VALID,0,VALID,94.7294,VALID,0,VALID,23.7189,VALID,323,VALID,0.330078,
2012-03-11, 02:40:04,VALID,997.726,VALID,0,VALID,94.7217,VALID,0,VALID,23.7189,VALID,323,VALID,0.433594,
2012-03-11, 02:41:04,VALID,997.69,VALID,0,VALID,94.7141,VALID,0,VALID,23.7402,VALID,323,VALID,0.571094,
2012-03-11, 02:42:04,VALID,997.702,VALID,0,VALID,94.7294,VALID,0,VALID,23.7189,VALID,323,VALID,0.465625,
2012-03-11, 02:43:04,VALID,997.673,VALID,0.5,VALID,94.7294,VALID,0,VALID,23.7189,VALID,323,VALID,0.332812,
2012-03-11, 02:44:04,VALID,997.628,VALID,0,VALID,94.7599,VALID,0,VALID,23.7189,VALID,323,VALID,0.172656,
2012-03-11, 02:45:04,VALID,997.598,VALID,0,VALID,94.7446,VALID,0,VALID,23.7189,VALID,323,VALID,0,
2012-03-11, 02:46:04,VALID,997.575,VALID,0,VALID,94.7675,VALID,0,VALID,23.7189,VALID,323,VALID,0,
2012-03-11, 02:47:04,VALID,997.583,VALID,0,VALID,94.7599,VALID,0,VALID,23.6994,VALID,323,VALID,0,
2012-03-11, 02:48:04,VALID,997.55,VALID,0,VALID,94.7751,VALID,0,VALID,23.6994,VALID,323,VALID,0.370703,
2012-03-11, 02:49:04,VALID,997.525,VALID,0,VALID,94.7675,VALID,0,VALID,23.6994,VALID,234,VALID,0.860547,
2012-03-11, 02:50:04,VALID,997.484,VALID,0,VALID,94.7828,VALID,0,VALID,23.7189,VALID,234,VALID,0.696094,
2012-03-11, 02:51:04,VALID,997.51,VALID,0,VALID,94.7675,VALID,0,VALID,23.7189,VALID,234,VALID,0.482031,
2012-03-11, 02:52:04,VALID,997.492,VALID,0,VALID,94.798,VALID,0,VALID,23.7384,VALID,234,VALID,0.628906,
2012-03-11, 02:53:04,VALID,997.494,VALID,0,VALID,94.8057,VALID,0,VALID,23.7384,VALID,234,VALID,0.369141,
2012-03-11, 02:54:04,VALID,997.502,VALID,0,VALID,94.7828,VALID,0,VALID,23.7384,VALID,234,VALID,0.00195313,
2012-03-11, 02:55:04,VALID,997.503,VALID,0,VALID,94.8057,VALID,0,VALID,23.7384,VALID,234,VALID,0.281641,
2012-03-11, 02:56:04,VALID,997.475,VALID,0,VALID,94.798,VALID,0,VALID,23.7384,VALID,234,VALID,0.258203,
2012-03-11, 02:57:04,VALID,997.434,VALID,0,VALID,94.8133,VALID,0,VALID,23.7384,VALID,234,VALID,0.291406,
2012-03-11, 02:58:04,VALID,997.43,VALID,0,VALID,94.8133,VALID,0,VALID,23.7384,VALID,234,VALID,0.301953,
2012-03-11, 02:59:04,VALID,997.378,VALID,0,VALID,94.8133,VALID,0,VALID,23.7384,VALID,234,VALID,0.561719,
2012-03-11, 03:00:04,VALID,997.354,VALID,0,VALID,94.8133,VALID,0,VALID,23.7384,VALID,235,VALID,0.735547,
2012-03-11, 03:01:04,VALID,997.337,VALID,0,VALID,94.8209,VALID,0,VALID,23.7384,VALID,250,VALID,0.694922,
2012-03-11, 03:02:04,VALID,997.325,VALID,0,VALID,94.8285,VALID,0,VALID,23.7579,VALID,250,VALID,0.480859,
2012-03-11, 03:03:04,VALID,997.323,VALID,0,VALID,94.8209,VALID,0.104696,VALID,23.7384,VALID,250,VALID,0.223438,
2012-03-11, 03:04:04,VALID,997.328,VALID,0,VALID,94.8362,VALID,0,VALID,23.7384,VALID,250,VALID,0,
2012-03-11, 03:05:04,VALID,997.321,VALID,0,VALID,94.8514,VALID,0,VALID,23.7384,VALID,250,VALID,0,
2012-03-11, 03:06:04,VALID,997.282,VALID,0,VALID,94.8514,VALID,0,VALID,23.7384,VALID,250,VALID,0,
2012-03-11, 03:07:04,VALID,997.248,VALID,0,VALID,94.8438,VALID,0,VALID,23.7384,VALID,250,VALID,0.0300781,
2012-03-11, 03:08:04,VALID,997.26,VALID,0,VALID,94.8438,VALID,0,VALID,23.7384,VALID,222,VALID,0.664844,
2012-03-11, 03:09:04,VALID,997.229,VALID,0,VALID,94.8438,VALID,0,VALID,23.7384,VALID,222,VALID,0.529688,
2012-03-11, 03:10:04,VALID,997.215,VALID,0,VALID,94.8591,VALID,0,VALID,23.7189,VALID,222,VALID,0.573438,
2012-03-11, 03:11:04,VALID,997.222,VALID,0,VALID,94.8514,VALID,0,VALID,23.7384,VALID,222,VALID,0.601172,
2012-03-11, 03:12:04,VALID,997.212,VALID,0,VALID,94.8667,VALID,0,VALID,23.7189,VALID,222,VALID,0.206641,
2012-03-11, 03:13:04,VALID,997.2,VALID,0,VALID,94.8743,VALID,0,VALID,23.7189,VALID,222,VALID,0.294922,
2012-03-11, 03:14:04,VALID,997.222,VALID,0,VALID,94.8591,VALID,0.104696,VALID,23.7189,VALID,222,VALID,0.378516,
2012-03-11, 03:15:04,VALID,997.217,VALID,0,VALID,94.8591,VALID,0,VALID,23.7384,VALID,222,VALID,0.394922,
2012-03-11, 03:16:04,VALID,997.176,VALID,0,VALID,94.8743,VALID,0.104696,VALID,23.7189,VALID,222,VALID,0.653125,
2012-03-11, 03:17:04,VALID,997.2,VALID,0,VALID,94.8667,VALID,0,VALID,23.7171,VALID,222,VALID,0.409375,
2012-03-11, 03:18:04,VALID,997.211,VALID,0,VALID,94.8591,VALID,0,VALID,23.7189,VALID,222,VALID,0.309766,
2012-03-11, 03:19:04,VALID,997.217,VALID,0,VALID,94.8972,VALID,0,VALID,23.7189,VALID,222,VALID,0.369531,
2012-03-11, 03:20:04,VALID,997.243,VALID,0,VALID,94.8743,VALID,0,VALID,23.7402,VALID,222,VALID,0.342969,
2012-03-11, 03:21:04,VALID,997.257,VALID,0,VALID,94.882,VALID,0,VALID,23.7402,VALID,222,VALID,0.303906,
2012-03-11, 03:22:04,VALID,997.29,VALID,0,VALID,94.882,VALID,0,VALID,23.7402,VALID,222,VALID,0.552344,
2012-03-11, 03:23:04,VALID,997.305,VALID,0,VALID,94.882,VALID,0,VALID,23.7189,VALID,222,VALID,0.156641,
2012-03-11, 03:24:04,VALID,997.293,VALID,0,VALID,94.8667,VALID,0,VALID,23.6994,VALID,211,VALID,0.707422,
2012-03-11, 03:25:04,VALID,997.297,VALID,0,VALID,94.8896,VALID,0,VALID,23.7207,VALID,211,VALID,0.648828,
2012-03-11, 03:26:04,VALID,997.307,VALID,0,VALID,94.8514,VALID,0,VALID,23.6994,VALID,211,VALID,0.540234,
2012-03-11, 03:27:04,VALID,997.289,VALID,0,VALID,94.8667,VALID,0,VALID,23.6799,VALID,211,VALID,0.648828,
2012-03-11, 03:28:04,VALID,997.255,VALID,0,VALID,94.8591,VALID,0,VALID,23.6994,VALID,211,VALID,0.660937,
2012-03-11, 03:29:04,VALID,997.266,VALID,0,VALID,94.8514,VALID,0,VALID,23.7207,VALID,214,VALID,1.01172,
2012-03-11, 03:30:04,VALID,997.234,VALID,0,VALID,94.8285,VALID,0,VALID,23.6799,VALID,237,VALID,1.08242,
2012-03-11, 03:31:04,VALID,997.223,VALID,0,VALID,94.8209,VALID,0,VALID,23.6799,VALID,214,VALID,0.729688,
2012-03-11, 03:32:04,VALID,997.212,VALID,0,VALID,94.8285,VALID,0,VALID,23.6799,VALID,218,VALID,0.954297,
2012-03-11, 03:33:04,VALID,997.25,VALID,0,VALID,94.8209,VALID,0,VALID,23.6799,VALID,218,VALID,0.630078,
2012-03-11, 03:34:04,VALID,997.263,VALID,0,VALID,94.8209,VALID,0,VALID,23.6604,VALID,211,VALID,0.503125,
2012-03-11, 03:35:04,VALID,997.265,VALID,0,VALID,94.7904,VALID,0,VALID,23.6817,VALID,196,VALID,0.832812,
2012-03-11, 03:36:04,VALID,997.314,VALID,0,VALID,94.8057,VALID,0,VALID,23.6817,VALID,183,VALID,0.955469,
2012-03-11, 03:37:04,VALID,997.326,VALID,0,VALID,94.8057,VALID,0,VALID,23.6817,VALID,191,VALID,1.18125,
2012-03-11, 03:38:04,VALID,997.311,VALID,0,VALID,94.798,VALID,0,VALID,23.6817,VALID,198,VALID,1.33477,
2012-03-11, 03:39:04,VALID,997.315,VALID,0,VALID,94.8133,VALID,0,VALID,23.6817,VALID,198,VALID,0.946094,
2012-03-11, 03:40:04,VALID,997.294,VALID,0,VALID,94.798,VALID,0,VALID,23.7012,VALID,192,VALID,1.0418,
2012-03-11, 03:41:04,VALID,997.334,VALID,0,VALID,94.8209,VALID,0,VALID,23.742,VALID,172,VALID,1.29297,
2012-03-11, 03:42:04,VALID,997.313,VALID,0,VALID,94.8438,VALID,0,VALID,23.7207,VALID,180,VALID,1.80078,
2012-03-11, 03:43:04,VALID,997.291,VALID,0,VALID,94.8133,VALID,0,VALID,23.7207,VALID,182,VALID,1.65156,
2012-03-11, 03:44:04,VALID,997.217,VALID,0,VALID,94.8057,VALID,0,VALID,23.7207,VALID,178,VALID,1.35039,
2012-03-11, 03:45:04,VALID,997.245,VALID,0,VALID,94.798,VALID,0,VALID,23.7012,VALID,190,VALID,1.08906,